STARLINK-34273, 64905

Orbit data source: Space-Track

STARLINK-34273, 64905 is a payload satellite owned by SpaceX/Seattle (US) in LEO that was launched on Sat, 26 Jul 2025 UTC via an FALCON 9 launch vehicle from the Air Force Eastern Test Range (AFETR). Payload-class satellites include a variety of spacecraft equipped with specific instruments for various scientific and technological missions. These include communications satellites like Starlink; space stations such as the ISS; scientific satellites like the Hubble; Earth observation satellites from companies like Planet Labs, Umbra, and HawkEye 360; GPS; miniature CubeSats for education and research; and military/defense satellites.

Loading next visibility...
Identifier
64905, 2025-157B
Orbit
LEO
Country
Flag of USUS
Related business
Manufacturer
SpaceX/Seattle
Mission
Operational Commercial Communications
Bus & Motor
STARLINK V2MO, Unknown motor
Mass
575 kg wet, ~530 kg dry
Launch date (UTC)
2025-07-26 (4 months ago)
Launch vehicle
FALCON 9
Launch site
Air Force Eastern Test Range (AFETR)
Object type
Payload
Rocket body
Debris
Shape & HBR
Box + 2 Pan, 17.7 m
Radar Cross Section
36.964 m², Large (>1 m²)

Expand to show TLE details & history
Last TLE update: 11 hours ago

TLE from 11 hours ago
0 STARLINK-34273
1 64905U 25157B   25340.92263181  .00067925  00000-0  16897-2 0  9992
2 64905  53.1623  60.6224 0000534 322.3149  37.7819 15.39680140 21872
Epoch: 2025-12-06T22:08Z
TLE epoch observation values (Epoch: 2025-12-06T22:08:35.388Z)
Latitude
0.00003°
Longitude
12.53156°
Altitude
447.67 km
Speed
7.645 km/s
True Right ascension
04h 02m 29s
True Declination
0° 00' 00"
Sunlit
Object was in full shadow at epoch
Visualization orbit readout
Latitude
Unknown
Longitude
Unknown
Altitude
Unknown
Speed
Unknown
Apparent Right ascension
Unknown
Apparent Declination
Unknown
Sunlit
N/A
Visualization observer readout
Local Sidereal Time
07:39:48
Azimuth
Unknown
Elevation
Unknown
Doppler factor
Unknown
Orbital elements
Apogee altitude
447.676 km
Perigee altitude
446.947 km
Semi-major axis
6,825.449 km
Eccentricity
0.00005
Inclination
53.1623°
RAAN
60.6224°
Arg. of periapsis
322.3149°
True anomaly
37.78565°
Mean anomaly
37.7819°
Eccentric anomaly
37.78377°
Mean motion
3.84899 °/min
Orbital period
93.53 mins
BSTAR
0.0016897
Loading maneuver chart data...
Computing Atmospheric mass density...
Loading historical data...
Loading historical data...
Loading historical data...
Loading historical data...
Loading historical data...
Loading historical data...
Loading historical data...

Documentation

Showing up to 5 results
|